Fullerton, CA

11:58 PM PDT on August 16, 2017 (GMT -0700)
Fullerton Municipal

Weather History for KFUL - October, 2012

Change the Weather History Date:

Tuesday, October 9, 2012

  Actual Average Record
Temperature  
Mean Temperature 71 °F 69 °F  
Max Temperature 79 °F 80 °F 105 °F (2015)
Min Temperature 63 °F 59 °F 52 °F (1998)
Degree Days  
Heating Degree Days 0 0  
Month to date heating degree days 0 0  
Since 1 July heating degree days 16 1  
Cooling Degree Days 6 4  
Month to date cooling degree days 98 47  
Year to date cooling degree days 1838 1165  
Growing Degree Days 22 (Base 50)    
Moisture  
Dew Point 57 °F    
Average Humidity 63    
Maximum Humidity 78    
Minimum Humidity 48    
Precipitation  
Precipitation 0.00 in 0.02 in 0.11 in (2013)
Month to date precipitation 0.00 0.11  
Year to date precipitation 3.54 10.09  
Since 1 July precipitation 0.01  
Snow  
Snow 0.00 in - - ()
Month to date snowfall 0.0  
Year to date snowfall 0.0  
Snow Depth 0.00 in    
Sea Level Pressure  
Sea Level Pressure 29.95 in    
Wind  
Wind Speed 3 mph (South)    
Max Wind Speed 10 mph    
Max Gust Speed 15 mph    
Visibility 10 miles    
Events      
T = Trace of Precipitation, MM = Missing Value Source: NWS Daily Summary

Daily Weather History Graph

Daily Weather History Graph

Search for Another Location

Airport or City:

Trip Planner

Search our weather history database for the weather conditions in past years. The results will help you decide how hot, cold, wet, or windy it might be!

Date:

Astronomy

Oct. 09, 2012 Rise Set
Actual Time 6:52 AM PDT 6:24 PM PDT
Civil Twilight 6:27 AM PDT 6:49 PM PDT
Nautical Twilight 5:58 AM PDT 7:18 PM PDT
Astronomical Twilight 5:29 AM PDT 7:47 PM PDT
Moon 12:50 AM PDT (10/9) 2:40 PM PDT (10/9)
Length of Visible Light 12h 22m
Length of Day
11h 32m
Waning Crescent, 35% of the Moon is Illuminated
Oct 9
Waning Crescent
Oct 15
New
Oct 21
First Quarter
Oct 29
Full
Nov 6
Last Quarter

Hourly Weather History & Observations

Time (PDT) Temp. Dew Point Humidity Pressure Visibility Wind Dir Wind Speed Gust Speed Precip Events Conditions
1:53 AM 64.9 °F 57.0 °F 75% 29.97 in 10.0 mi Calm Calm - N/A   Clear
2:32 AM 64.4 °F 57.2 °F 77% 29.96 in 10.0 mi Calm Calm - N/A   Mostly Cloudy
2:53 AM 64.9 °F 57.9 °F 78% 29.95 in 10.0 mi Calm Calm - N/A   Scattered Clouds
3:53 AM 64.0 °F 57.0 °F 78% 29.94 in 10.0 mi Calm Calm - N/A   Partly Cloudy
4:28 AM 64.4 °F 57.2 °F 77% 29.95 in 10.0 mi Calm Calm - N/A   Mostly Cloudy
4:35 AM 64.4 °F 57.2 °F 77% 29.95 in 10.0 mi Calm Calm - N/A   Scattered Clouds
4:53 AM 64.0 °F 57.0 °F 78% 29.95 in 10.0 mi East 3.5 mph - N/A   Clear
5:33 AM 66.2 °F 57.2 °F 73% 29.95 in 10.0 mi East 4.6 mph - N/A   Mostly Cloudy
5:53 AM 66.0 °F 57.9 °F 75% 29.96 in 10.0 mi East 3.5 mph - N/A   Overcast
6:53 AM 66.9 °F 59.0 °F 76% 29.97 in 10.0 mi Calm Calm - N/A   Overcast
7:53 AM 69.1 °F 57.9 °F 68% 29.97 in 10.0 mi Calm Calm - N/A   Overcast
8:41 AM 69.8 °F 57.2 °F 64% 29.98 in 10.0 mi Calm Calm - N/A   Overcast
8:53 AM 70.0 °F 57.9 °F 65% 29.99 in 10.0 mi Calm Calm - N/A   Overcast
9:07 AM 71.6 °F 57.2 °F 60% 29.98 in 10.0 mi Calm Calm - N/A   Overcast
9:53 AM 72.0 °F 57.0 °F 59% 29.98 in 10.0 mi Calm Calm - N/A   Overcast
10:43 AM 73.4 °F 55.4 °F 53% 29.98 in 10.0 mi Variable 3.5 mph - N/A   Overcast
10:53 AM 73.9 °F 55.9 °F 53% 29.98 in 10.0 mi SSW 3.5 mph - N/A   Mostly Cloudy
11:53 AM 75.9 °F 55.9 °F 50% 29.96 in 10.0 mi South 4.6 mph - N/A   Scattered Clouds
12:53 PM 78.1 °F 57.9 °F 50% 29.95 in 10.0 mi West 6.9 mph - N/A   Scattered Clouds
1:53 PM 77.0 °F 57.0 °F 50% 29.93 in 10.0 mi Variable 4.6 mph - N/A   Scattered Clouds
2:53 PM 79.0 °F 57.0 °F 47% 29.91 in 10.0 mi Variable 5.8 mph - N/A   Clear
3:53 PM 79.0 °F 57.9 °F 48% 29.91 in 10.0 mi SW 5.8 mph - N/A   Clear
4:53 PM 75.0 °F 57.9 °F 55% 29.91 in 10.0 mi SSW 9.2 mph - N/A   Clear
5:53 PM 73.9 °F 57.9 °F 57% 29.91 in 10.0 mi South 5.8 mph - N/A   Clear
6:53 PM 72.0 °F 57.9 °F 61% 29.92 in 10.0 mi Variable 4.6 mph - N/A   Clear
7:53 PM 71.1 °F 57.9 °F 63% 29.94 in 10.0 mi Variable 3.5 mph - N/A   Clear
8:53 PM 71.1 °F 57.0 °F 61% 29.95 in 10.0 mi Variable 4.6 mph - N/A   Partly Cloudy
9:53 PM 70.0 °F 57.0 °F 63% 29.96 in 10.0 mi Variable 3.5 mph - N/A   Overcast
10:53 PM 69.1 °F 55.9 °F 63% 29.96 in 10.0 mi Calm Calm - N/A   Mostly Cloudy
11:53 PM 66.9 °F 57.0 °F 70% 29.96 in 10.0 mi Variable 3.5 mph - N/A   Partly Cloudy